TimeMDT,TemperatureF,Dew PointF,Humidity,Sea Level PressureIn,VisibilityMPH,Wind Direction,Wind SpeedMPH,Gust SpeedMPH,PrecipitationIn,Events,Conditions,WindDirDegrees,DateUTC
12:53 AM,33.1,23.0,66,29.70,10.0,ENE,9.2,-,N/A,,Overcast,70,2014-04-16 06:53:00
1:53 AM,30.0,21.0,69,29.73,10.0,ENE,11.5,-,N/A,,Partly Cloudy,60,2014-04-16 07:53:00
2:53 AM,28.0,19.9,72,29.74,10.0,NE,16.1,-,N/A,,Overcast,40,2014-04-16 08:53:00
3:53 AM,26.1,17.1,69,29.77,10.0,NE,17.3,-,N/A,,Mostly Cloudy,50,2014-04-16 09:53:00
4:53 AM,25.0,17.1,72,29.80,10.0,NE,17.3,-,N/A,,Mostly Cloudy,40,2014-04-16 10:53:00
5:53 AM,24.1,16.0,71,29.86,10.0,NNE,10.4,-,N/A,,Scattered Clouds,30,2014-04-16 11:53:00
6:53 AM,24.1,16.0,71,29.92,10.0,NNE,13.8,-,N/A,,Clear,20,2014-04-16 12:53:00
7:53 AM,27.0,17.1,66,29.96,10.0,NE,15.0,24.2,N/A,,Mostly Cloudy,40,2014-04-16 13:53:00
8:53 AM,27.0,19.0,72,30.01,10.0,NNE,17.3,-,N/A,,Mostly Cloudy,30,2014-04-16 14:53:00
9:53 AM,28.9,19.9,69,30.05,10.0,NE,12.7,-,N/A,,Overcast,40,2014-04-16 15:53:00
10:53 AM,28.9,21.0,72,30.09,10.0,NNE,10.4,-,N/A,,Overcast,20,2014-04-16 16:53:00
12:53 PM,30.0,21.9,72,30.14,10.0,NNE,9.2,-,N/A,,Overcast,20,2014-04-16 18:53:00
1:53 PM,30.9,21.9,69,30.16,10.0,NE,12.7,-,N/A,,Overcast,50,2014-04-16 19:53:00
2:53 PM,32.0,21.9,66,30.18,10.0,NE,9.2,-,N/A,,Overcast,50,2014-04-16 20:53:00
3:53 PM,32.0,21.9,66,30.20,10.0,NE,10.4,-,N/A,,Overcast,40,2014-04-16 21:53:00
4:53 PM,30.9,21.9,69,30.22,10.0,ENE,9.2,-,N/A,,Overcast,60,2014-04-16 22:53:00
5:53 PM,30.9,21.9,69,30.24,10.0,ENE,10.4,-,N/A,,Overcast,60,2014-04-16 23:53:00
6:53 PM,30.0,21.9,72,30.26,10.0,NE,9.2,-,N/A,,Overcast,50,2014-04-17 00:53:00
7:53 PM,28.9,21.9,75,30.28,10.0,NE,10.4,-,N/A,,Overcast,50,2014-04-17 01:53:00
8:53 PM,28.0,21.0,75,30.29,10.0,ENE,9.2,-,N/A,,Overcast,70,2014-04-17 02:53:00
9:23 PM,28.0,21.0,75,30.20,10.0,East,9.2,-,N/A,,Overcast,80,2014-04-17 03:23:00
9:53 PM,26.1,21.0,81,30.30,10.0,East,5.8,-,N/A,,Mostly Cloudy,80,2014-04-17 03:53:00
10:53 PM,26.1,19.9,78,30.30,10.0,East,5.8,-,N/A,,Overcast,80,2014-04-17 04:53:00
11:53 PM,28.0,21.0,75,30.30,10.0,East,8.1,-,N/A,,Overcast,90,2014-04-17 05:53:00